START_TIME,STEP,MOV.,M29,t_acc.,H22,t_acc.,H26,t_acc.,H30,t_acc.
1979-08-01 18:00:30.770 ,1,1,0.,24.0,0.,24.0,0.,24.0,0.,24.0
1979-08-01 18:00:54.770 ,2,1,0.,24.0,0.,24.0,0.,24.0,0.,24.0
1979-08-01 18:01:18.770 ,6,1,0.,24.0,0.,24.0,0.,24.0,0.,24.0
1979-08-01 18:01:42.770 ,5,1,0.,24.0,0.,24.0,0.,24.0,0.,24.0
1979-08-01 18:02:06.770 ,1,1,0.,24.0,0.,24.0,0.,24.0,0.,24.0
1979-08-01 18:03:18.770 ,0,0,0.,24.0,0.,24.0,0.,24.0,0.,24.0
1979-08-01 18:03:42.770 ,1,1,0.,24.0,0.,24.0,0.,24.0,0.,24.0
1979-08-01 18:04:06.770 ,2,1,0.,24.0,0.,24.0,0.,24.0,0.,24.0
1979-08-01 18:04:30.770 ,6,1,0.,24.0,0.,24.0,0.,24.0,0.,24.0
1979-08-01 18:04:54.770 ,5,1,0.,24.0,0.,24.0,0.,24.0,0.,24.0
1979-08-01 18:05:18.770 ,1,1,0.,24.0,0.,24.0,0.,24.0,0.,24.0
1979-08-01 18:05:42.770 ,0,0,0.,24.0,0.,24.0,0.,24.0,0.,24.0
1979-08-01 18:06:06.770 ,0,0,0.,24.0,0.,24.0,0.,24.0,0.,24.0
1979-08-01 18:07:18.770 ,0,0,0.,24.0,0.,24.0,0.,24.0,0.,24.0
1979-08-01 18:07:42.770 ,0,0,0.,24.0,0.,24.0,0.,24.0,0.,24.0
1979-08-01 18:08:06.770 ,3,1,0.,24.0,0.,24.0,0.,24.0,0.,24.0
1979-08-01 18:08:30.770 ,3,0,0.,24.0,0.,24.0,0.,24.0,0.,24.0
1979-08-01 18:08:54.770 ,2,1,0.,24.0,0.,24.0,0.,24.0,0.,24.0
1979-08-01 18:09:18.770 ,2,0,0.,24.0,0.,24.0,0.,24.0,0.,24.0
1979-08-01 18:09:42.770 ,1,1,0.,24.0,0.,24.0,0.,24.0,0.,24.0
1979-08-01 18:10:06.770 ,1,0,0.,24.0,0.,24.0,0.,24.0,0.,24.0
1979-08-01 18:10:30.770 ,0,1,0.,24.0,0.,24.0,0.,24.0,0.,24.0
1979-08-01 18:10:54.770 ,0,0,0.,24.0,0.,24.0,0.,24.0,0.,24.0
1979-08-01 18:12:06.770 ,0,0,0.,24.0,0.,24.0,0.,24.0,0.,24.0
1979-08-01 18:12:30.770 ,0,0,0.,24.0,0.,24.0,0.,24.0,0.,24.0
1979-08-01 18:12:54.770 ,2,1,0.,24.0,0.,24.0,0.,24.0,0.,24.0
1979-08-01 18:13:18.770 ,2,0,0.,24.0,0.,24.0,0.,24.0,0.,24.0
1979-08-01 18:13:42.770 ,3,1,0.,24.0,0.,24.0,0.,24.0,0.,24.0
1979-08-01 18:14:06.770 ,3,0,0.,24.0,0.,24.0,0.,24.0,0.,24.0
1979-08-01 18:14:30.770 ,4,1,0.,24.0,0.,24.0,0.,24.0,0.,24.0
1979-08-01 18:14:54.770 ,4,0,0.,24.0,0.,24.0,0.,24.0,0.,24.0
1979-08-01 18:15:18.770 ,5,1,0.,24.0,0.,24.0,0.,24.0,0.,24.0
1979-08-01 18:15:42.770 ,5,0,0.,24.0,0.,24.0,0.,24.0,0.,24.0
1979-08-01 18:16:06.770 ,6,1,0.,24.0,0.,24.0,0.,24.0,0.,24.0
1979-08-01 18:16:30.770 ,6,0,0.,24.0,0.,24.0,0.,24.0,0.,24.0
1979-08-01 18:16:54.770 ,7,1,0.,24.0,0.,24.0,0.,24.0,0.,24.0
1979-08-01 18:17:18.770 ,7,0,0.,24.0,0.,24.0,0.,24.0,0.,24.0
1979-08-01 18:18:30.770 ,0,0,0.,24.0,0.,24.0,0.,24.0,0.,24.0
1979-08-01 18:18:54.770 ,0,0,0.,24.0,0.,24.0,0.,24.0,0.,24.0
1979-08-01 18:19:18.770 ,5,1,0.,24.0,0.,24.0,0.,24.0,0.,24.0
1979-08-01 18:19:42.770 ,5,0,0.,24.0,0.,24.0,0.,24.0,0.,24.0
1979-08-01 18:20:06.770 ,4,1,0.,24.0,0.,24.0,0.,24.0,0.,24.0
1979-08-01 18:20:30.770 ,4,0,0.,24.0,0.,24.0,0.,24.0,0.,24.0
1979-08-01 18:20:54.770 ,3,1,0.,24.0,0.,24.0,0.,24.0,0.,24.0
1979-08-01 18:21:18.770 ,3,0,0.,24.0,0.,24.0,0.,24.0,0.,24.0
1979-08-01 18:21:42.770 ,2,1,0.,24.0,0.,24.0,0.,24.0,0.,24.0
1979-08-01 18:22:06.770 ,2,0,0.,24.0,0.,24.0,0.,24.0,0.,24.0
1979-08-01 18:22:30.770 ,1,1,0.,24.0,0.,24.0,0.,24.0,0.,24.0
1979-08-01 18:22:54.770 ,1,0,0.,24.0,0.,24.0,0.,24.0,0.,24.0
1979-08-01 18:23:18.770 ,0,1,0.,24.0,0.,24.0,0.,24.0,0.,24.0
1979-08-01 18:23:42.770 ,0,0,0.,24.0,0.,24.0,0.,24.0,0.,24.0
1979-08-01 18:24:54.770 ,0,0,0.,24.0,0.,24.0,0.,24.0,0.,24.0
1979-08-01 18:25:18.770 ,0,0,0.,24.0,0.,24.0,0.,24.0,0.,24.0
1979-08-01 18:25:42.770 ,2,1,0.,24.0,0.,24.0,0.,24.0,0.,24.0
1979-08-01 18:26:06.770 ,2,0,1.,24.0,0.,24.0,0.,24.0,0.,24.0
1979-08-01 18:26:30.770 ,3,1,0.,24.0,0.,24.0,0.,24.0,0.,24.0
1979-08-01 18:26:54.770 ,3,0,0.,24.0,0.,24.0,0.,24.0,0.,24.0
1979-08-01 18:27:18.770 ,4,1,0.,24.0,0.,24.0,0.,24.0,0.,24.0
1979-08-01 18:27:42.770 ,4,0,1.,24.0,0.,24.0,0.,24.0,0.,24.0
1979-08-01 18:28:06.770 ,5,1,0.,24.0,0.,24.0,0.,24.0,0.,24.0
1979-08-01 18:28:30.770 ,5,0,0.,24.0,0.,24.0,0.,24.0,0.,24.0
1979-08-01 18:28:54.770 ,6,1,0.,24.0,0.,24.0,0.,24.0,0.,24.0
1979-08-01 18:29:18.770 ,6,0,0.,24.0,0.,24.0,0.,24.0,0.,24.0
1979-08-01 18:29:42.770 ,7,1,0.,24.0,0.,24.0,0.,24.0,0.,24.0
1979-08-01 18:30:06.770 ,7,0,0.,24.0,0.,24.0,0.,24.0,0.,24.0
1979-08-01 18:30:30.770 ,7,1,0.,24.0,0.,24.0,0.,24.0,0.,24.0
1979-08-01 18:30:54.770 ,7,0,0.,24.0,0.,24.0,0.,24.0,0.,24.0
1979-08-01 18:31:18.770 ,6,1,0.,24.0,0.,24.0,0.,24.0,0.,24.0
1979-08-01 18:31:42.770 ,6,0,0.,24.0,0.,24.0,0.,24.0,0.,24.0
1979-08-01 18:32:06.770 ,5,1,0.,24.0,0.,24.0,0.,24.0,0.,24.0
1979-08-01 18:32:30.770 ,5,0,0.,24.0,0.,24.0,0.,24.0,0.,24.0
1979-08-01 18:32:54.770 ,4,1,0.,24.0,0.,24.0,0.,24.0,0.,24.0
1979-08-01 18:33:18.770 ,4,0,0.,24.0,0.,24.0,0.,24.0,0.,24.0
1979-08-01 18:33:42.770 ,3,1,0.,24.0,0.,24.0,0.,24.0,0.,24.0
1979-08-01 18:34:06.770 ,3,0,0.,24.0,0.,24.0,0.,24.0,0.,24.0
1979-08-01 18:34:30.770 ,2,1,0.,24.0,0.,24.0,0.,24.0,0.,24.0
1979-08-01 18:34:54.770 ,2,0,0.,24.0,0.,24.0,0.,24.0,0.,24.0
1979-08-01 18:35:18.770 ,1,1,0.,24.0,0.,24.0,0.,24.0,0.,24.0
1979-08-01 18:35:42.770 ,1,0,0.,24.0,0.,24.0,0.,24.0,0.,24.0
1979-08-01 18:36:54.770 ,0,0,1.,24.0,0.,24.0,0.,24.0,0.,24.0
1979-08-01 18:37:18.770 ,0,0,0.,24.0,0.,24.0,0.,24.0,0.,24.0
1979-08-01 18:37:42.770 ,1,1,0.,24.0,0.,24.0,0.,24.0,0.,24.0
1979-08-01 18:38:06.770 ,1,0,0.,24.0,0.,24.0,0.,24.0,0.,24.0
1979-08-01 18:38:30.770 ,2,1,0.,24.0,0.,24.0,0.,24.0,0.,24.0
1979-08-01 18:38:54.770 ,2,0,0.,24.0,0.,24.0,0.,24.0,0.,24.0
1979-08-01 18:39:18.770 ,3,1,0.,24.0,0.,24.0,0.,24.0,0.,24.0
1979-08-01 18:39:42.770 ,3,0,0.,24.0,0.,24.0,0.,24.0,0.,24.0
1979-08-01 18:40:06.770 ,4,1,0.,24.0,0.,24.0,0.,24.0,0.,24.0
1979-08-01 18:40:30.770 ,4,0,0.,24.0,0.,24.0,0.,24.0,0.,24.0
1979-08-01 18:40:54.770 ,5,1,0.,24.0,0.,24.0,0.,24.0,0.,24.0
1979-08-01 18:41:18.770 ,5,0,0.,24.0,0.,24.0,0.,24.0,0.,24.0
1979-08-01 18:41:42.770 ,6,1,0.,24.0,0.,24.0,0.,24.0,0.,24.0
1979-08-01 18:42:06.770 ,6,0,0.,24.0,0.,24.0,0.,24.0,0.,24.0
1979-08-01 18:42:30.770 ,7,0,0.,24.0,0.,24.0,0.,24.0,0.,24.0
1979-08-01 18:42:54.770 ,7,0,0.,24.0,0.,24.0,0.,24.0,0.,24.0
1979-08-01 18:43:18.770 ,5,1,0.,24.0,0.,24.0,0.,24.0,0.,24.0
1979-08-01 18:43:42.770 ,1,1,0.,24.0,0.,24.0,0.,24.0,0.,24.0
1979-08-01 18:44:06.770 ,2,1,0.,24.0,0.,24.0,0.,24.0,0.,24.0
1979-08-01 18:44:30.770 ,6,1,0.,24.0,0.,24.0,0.,24.0,0.,24.0
1979-08-01 18:45:42.770 ,0,0,0.,24.0,0.,24.0,0.,24.0,0.,24.0
1979-08-01 18:46:06.770 ,6,1,0.,24.0,0.,24.0,0.,24.0,0.,24.0
1979-08-01 18:46:30.770 ,5,1,0.,24.0,0.,24.0,0.,24.0,0.,24.0
1979-08-01 18:46:54.770 ,1,1,0.,24.0,0.,24.0,0.,24.0,0.,24.0
1979-08-01 18:47:18.770 ,2,1,0.,24.0,0.,24.0,0.,24.0,0.,24.0
1979-08-01 18:47:42.770 ,6,1,0.,24.0,0.,24.0,0.,24.0,0.,24.0
1979-08-01 18:48:06.770 ,5,1,0.,24.0,0.,24.0,0.,24.0,0.,24.0
1979-08-01 18:48:30.770 ,1,1,0.,24.0,0.,24.0,0.,24.0,0.,24.0
1979-08-01 18:48:54.770 ,2,1,0.,24.0,0.,24.0,0.,24.0,0.,24.0
1979-08-01 18:49:18.770 ,6,1,0.,24.0,0.,24.0,0.,24.0,0.,24.0
1979-08-01 18:50:30.770 ,0,0,0.,24.0,0.,24.0,0.,24.0,0.,24.0
1979-08-01 18:50:54.770 ,6,1,0.,24.0,0.,24.0,0.,24.0,0.,24.0
1979-08-01 18:51:18.770 ,5,1,0.,24.0,0.,24.0,0.,24.0,0.,24.0
1979-08-01 18:51:42.770 ,1,1,0.,24.0,0.,24.0,0.,24.0,0.,24.0
1979-08-01 18:52:06.770 ,2,1,0.,24.0,0.,24.0,0.,24.0,0.,24.0
1979-08-01 18:52:30.770 ,6,1,0.,24.0,0.,24.0,0.,24.0,0.,24.0
1979-08-01 18:52:54.770 ,5,1,0.,24.0,0.,24.0,0.,24.0,0.,24.0
1979-08-01 18:53:18.770 ,1,1,0.,24.0,0.,24.0,0.,24.0,0.,24.0
1979-08-01 18:53:42.770 ,0,0,0.,24.0,0.,24.0,0.,24.0,0.,24.0
1979-08-01 18:54:06.770 ,0,0,0.,24.0,0.,24.0,0.,24.0,0.,24.0
1979-08-01 18:54:30.770 ,5,1,0.,24.0,0.,24.0,0.,24.0,0.,24.0
1979-08-01 18:54:54.770 ,5,0,0.,24.0,0.,24.0,0.,24.0,0.,24.0
1979-08-01 18:55:18.770 ,4,1,1.,24.0,0.,24.0,0.,24.0,0.,24.0
1979-08-01 18:55:42.770 ,4,0,0.,24.0,0.,24.0,0.,24.0,0.,24.0
1979-08-01 18:56:06.770 ,3,1,0.,24.0,0.,24.0,0.,24.0,0.,24.0
1979-08-01 18:56:30.770 ,3,0,0.,24.0,0.,24.0,0.,24.0,0.,24.0
1979-08-01 18:56:54.770 ,2,1,0.,24.0,0.,24.0,0.,24.0,0.,24.0
1979-08-01 18:57:18.770 ,2,0,0.,24.0,0.,24.0,0.,24.0,0.,24.0
1979-08-01 18:57:42.770 ,1,1,0.,24.0,0.,24.0,0.,24.0,0.,24.0
1979-08-01 18:58:06.770 ,1,0,0.,24.0,0.,24.0,0.,24.0,0.,24.0
1979-08-01 18:58:30.770 ,0,1,0.,24.0,0.,24.0,0.,24.0,0.,24.0
1979-08-01 18:58:54.770 ,0,0,0.,24.0,0.,24.0,0.,24.0,0.,24.0
1979-08-01 18:59:18.770 ,0,1,0.,24.0,0.,24.0,0.,24.0,0.,24.0
1979-08-01 18:59:42.770 ,0,0,0.,24.0,0.,24.0,0.,24.0,0.,24.0
1979-08-01 19:00:06.770 ,1,1,0.,24.0,0.,24.0,0.,24.0,0.,24.0
1979-08-01 19:00:30.770 ,1,0,0.,24.0,0.,24.0,0.,24.0,0.,24.0
1979-08-01 19:00:54.770 ,2,1,0.,24.0,0.,24.0,0.,24.0,0.,24.0
1979-08-01 19:01:18.770 ,2,0,0.,24.0,0.,24.0,0.,24.0,0.,24.0
1979-08-01 19:01:42.770 ,3,1,0.,24.0,0.,24.0,0.,24.0,0.,24.0
1979-08-01 19:02:06.770 ,3,0,0.,24.0,0.,24.0,0.,24.0,0.,24.0
1979-08-01 19:03:18.770 ,0,0,0.,24.0,0.,24.0,0.,24.0,0.,24.0
1979-08-01 19:03:42.770 ,0,0,0.,24.0,0.,24.0,0.,24.0,0.,24.0
1979-08-01 19:04:06.770 ,6,1,0.,24.0,0.,24.0,0.,24.0,0.,24.0
1979-08-01 19:04:30.770 ,6,0,0.,24.0,0.,24.0,0.,24.0,0.,24.0
1979-08-01 19:04:54.770 ,7,1,0.,24.0,0.,24.0,0.,24.0,0.,24.0
1979-08-01 19:05:18.770 ,7,0,0.,24.0,0.,24.0,0.,24.0,0.,24.0
1979-08-01 19:05:42.770 ,7,1,0.,24.0,0.,24.0,0.,24.0,0.,24.0
1979-08-01 19:06:06.770 ,7,0,0.,24.0,0.,24.0,0.,24.0,0.,24.0
1979-08-01 19:06:30.770 ,6,1,0.,24.0,0.,24.0,0.,24.0,0.,24.0
1979-08-01 19:06:54.770 ,6,0,0.,24.0,0.,24.0,0.,24.0,0.,24.0
1979-08-01 19:07:18.770 ,5,1,0.,24.0,0.,24.0,0.,24.0,0.,24.0
1979-08-01 19:07:42.770 ,5,0,0.,24.0,0.,24.0,0.,24.0,0.,24.0
1979-08-01 19:08:06.770 ,4,1,0.,24.0,0.,24.0,0.,24.0,0.,24.0
1979-08-01 19:08:30.770 ,4,0,0.,24.0,0.,24.0,0.,24.0,0.,24.0
1979-08-01 19:08:54.770 ,3,1,0.,24.0,0.,24.0,0.,24.0,0.,24.0
1979-08-01 19:09:18.770 ,3,0,0.,24.0,0.,24.0,0.,24.0,0.,24.0
1979-08-01 19:09:42.770 ,2,1,0.,24.0,0.,24.0,0.,24.0,0.,24.0
1979-08-01 19:10:06.770 ,2,0,0.,24.0,0.,24.0,0.,24.0,0.,24.0
1979-08-01 19:10:30.770 ,1,1,0.,24.0,0.,24.0,0.,24.0,0.,24.0
1979-08-01 19:10:54.770 ,1,0,0.,24.0,0.,24.0,0.,24.0,0.,24.0
1979-08-01 19:11:18.770 ,0,1,0.,24.0,0.,24.0,0.,24.0,0.,24.0
1979-08-01 19:11:42.770 ,0,0,0.,24.0,0.,24.0,0.,24.0,0.,24.0
1979-08-01 19:12:06.770 ,0,1,0.,24.0,0.,24.0,0.,24.0,0.,24.0
1979-08-01 19:12:30.770 ,0,0,0.,24.0,0.,24.0,0.,24.0,0.,24.0
1979-08-01 19:12:54.770 ,1,1,0.,24.0,0.,24.0,0.,24.0,0.,24.0
1979-08-01 19:13:18.770 ,1,0,0.,24.0,0.,24.0,0.,24.0,0.,24.0
1979-08-01 19:13:42.770 ,2,1,0.,24.0,0.,24.0,0.,24.0,0.,24.0
1979-08-01 19:14:06.770 ,2,0,0.,24.0,0.,24.0,0.,24.0,0.,24.0
1979-08-01 19:14:30.770 ,3,1,0.,24.0,0.,24.0,0.,24.0,0.,24.0
1979-08-01 19:14:54.770 ,3,0,0.,24.0,0.,24.0,0.,24.0,0.,24.0
1979-08-01 19:15:18.770 ,4,1,0.,24.0,0.,24.0,0.,24.0,0.,24.0
1979-08-01 19:15:42.770 ,4,0,0.,24.0,0.,24.0,0.,24.0,0.,24.0
1979-08-01 19:16:54.770 ,0,0,0.,24.0,0.,24.0,0.,24.0,0.,24.0
1979-08-01 19:17:18.770 ,0,0,0.,24.0,0.,24.0,0.,24.0,0.,24.0
1979-08-01 19:17:42.770 ,7,1,0.,24.0,0.,24.0,0.,24.0,0.,24.0
1979-08-01 19:18:06.770 ,7,0,0.,24.0,0.,24.0,0.,24.0,0.,24.0
1979-08-01 19:18:30.770 ,7,1,1.,24.0,0.,24.0,0.,24.0,0.,24.0
1979-08-01 19:18:54.770 ,7,0,0.,24.0,0.,24.0,0.,24.0,0.,24.0
1979-08-01 19:19:18.770 ,6,1,0.,24.0,0.,24.0,0.,24.0,0.,24.0
1979-08-01 19:19:42.770 ,6,0,0.,24.0,0.,24.0,0.,24.0,0.,24.0
1979-08-01 19:20:06.770 ,5,1,0.,24.0,0.,24.0,0.,24.0,0.,24.0
1979-08-01 19:20:30.770 ,5,0,0.,24.0,0.,24.0,0.,24.0,0.,24.0
1979-08-01 19:20:54.770 ,4,1,0.,24.0,0.,24.0,0.,24.0,0.,24.0
1979-08-01 19:21:18.770 ,4,0,0.,24.0,0.,24.0,0.,24.0,0.,24.0
1979-08-01 19:22:30.770 ,0,0,0.,24.0,0.,24.0,0.,24.0,0.,24.0
1979-08-01 19:22:54.770 ,0,0,0.,24.0,0.,24.0,0.,24.0,0.,24.0
1979-08-01 19:23:24.770 ,1,1,0.,24.0,0.,24.0,0.,24.0,0.,24.0
1979-08-01 19:23:42.770 ,1,0,0.,24.0,0.,24.0,0.,24.0,0.,24.0
1979-08-01 19:24:06.770 ,0,1,0.,24.0,0.,24.0,0.,24.0,0.,24.0
1979-08-01 19:24:30.770 ,0,0,0.,24.0,0.,24.0,0.,24.0,0.,24.0
1979-08-01 19:24:54.770 ,0,1,0.,24.0,0.,24.0,0.,24.0,0.,24.0
1979-08-01 19:25:18.770 ,0,0,0.,24.0,0.,24.0,0.,24.0,0.,24.0
1979-08-01 19:25:42.770 ,1,1,0.,24.0,0.,24.0,0.,24.0,0.,24.0
1979-08-01 19:26:06.770 ,1,0,0.,24.0,0.,24.0,0.,24.0,0.,24.0
1979-08-01 19:26:30.770 ,2,1,0.,24.0,0.,24.0,0.,24.0,0.,24.0
1979-08-01 19:26:54.770 ,4,0,0.,24.0,0.,24.0,0.,24.0,1.,24.0
1979-08-01 19:27:18.770 ,3,1,0.,24.0,0.,24.0,0.,24.0,0.,24.0
1979-08-01 19:27:42.770 ,3,0,0.,24.0,0.,24.0,0.,24.0,0.,24.0
1979-08-01 19:28:06.770 ,4,1,0.,24.0,0.,24.0,0.,24.0,0.,24.0
1979-08-01 19:28:30.770 ,4,0,0.,24.0,0.,24.0,0.,24.0,0.,24.0
1979-08-01 19:28:54.770 ,5,1,1.,24.0,0.,24.0,0.,24.0,0.,24.0
1979-08-01 19:29:18.770 ,5,0,0.,24.0,0.,24.0,0.,24.0,0.,24.0
1979-08-01 19:29:42.770 ,6,1,0.,24.0,0.,24.0,0.,24.0,0.,24.0
1979-08-01 19:30:06.770 ,6,0,0.,24.0,0.,24.0,0.,24.0,0.,24.0
1979-08-01 19:30:30.770 ,7,0,1.,24.0,0.,24.0,0.,24.0,0.,24.0
1979-08-01 19:30:54.770 ,7,0,0.,24.0,0.,24.0,0.,24.0,0.,24.0
1979-08-01 19:31:18.770 ,5,1,0.,24.0,0.,24.0,0.,24.0,0.,24.0
1979-08-01 19:31:42.770 ,1,1,0.,24.0,0.,24.0,0.,24.0,0.,24.0
1979-08-01 19:32:06.770 ,2,1,0.,24.0,0.,24.0,0.,24.0,0.,24.0
1979-08-01 19:32:30.770 ,6,1,0.,24.0,0.,24.0,0.,24.0,0.,24.0
1979-08-01 19:32:54.770 ,5,1,0.,24.0,0.,24.0,0.,24.0,0.,24.0
1979-08-01 19:33:18.770 ,1,1,0.,24.0,0.,24.0,0.,24.0,0.,24.0
1979-08-01 19:33:42.770 ,2,1,0.,24.0,0.,24.0,0.,24.0,0.,24.0
1979-08-01 19:34:06.770 ,6,1,0.,24.0,0.,24.0,0.,24.0,0.,24.0
1979-08-01 19:35:18.770 ,0,0,0.,24.0,0.,24.0,0.,24.0,0.,24.0
1979-08-01 19:35:42.770 ,6,1,0.,24.0,0.,24.0,0.,24.0,0.,24.0
1979-08-01 19:36:06.770 ,5,1,0.,24.0,0.,24.0,0.,24.0,0.,24.0
1979-08-01 19:36:30.770 ,1,1,0.,24.0,0.,24.0,0.,24.0,0.,24.0
1979-08-01 19:36:54.770 ,2,1,0.,24.0,0.,24.0,0.,24.0,0.,24.0
1979-08-01 19:37:18.770 ,6,1,0.,24.0,0.,24.0,0.,24.0,0.,24.0
1979-08-01 19:37:42.770 ,5,1,0.,24.0,0.,24.0,0.,24.0,0.,24.0
1979-08-01 19:38:06.770 ,1,1,0.,24.0,0.,24.0,0.,24.0,0.,24.0
1979-08-01 19:38:30.770 ,2,1,0.,24.0,0.,24.0,0.,24.0,0.,24.0
1979-08-01 19:38:54.770 ,6,1,0.,24.0,0.,24.0,0.,24.0,0.,24.0
1979-08-01 19:39:18.770 ,5,1,0.,24.0,0.,24.0,0.,24.0,0.,24.0
1979-08-01 19:39:42.770 ,1,1,0.,24.0,0.,24.0,0.,24.0,0.,24.0
1979-08-01 19:40:06.770 ,2,1,0.,24.0,0.,24.0,0.,24.0,0.,24.0
1979-08-01 19:40:30.770 ,6,1,0.,24.0,0.,24.0,0.,24.0,0.,24.0
1979-08-01 19:40:54.770 ,5,1,0.,24.0,0.,24.0,0.,24.0,0.,24.0
1979-08-01 19:41:18.770 ,1,1,0.,24.0,0.,24.0,0.,24.0,0.,24.0
1979-08-01 19:41:42.770 ,0,0,0.,24.0,0.,24.0,0.,24.0,0.,24.0
1979-08-01 19:42:06.770 ,0,0,0.,24.0,0.,24.0,0.,24.0,0.,24.0
1979-08-01 19:42:30.770 ,5,1,0.,24.0,0.,24.0,0.,24.0,0.,24.0
1979-08-01 19:42:54.770 ,5,0,0.,24.0,0.,24.0,0.,24.0,0.,24.0
1979-08-01 19:43:18.770 ,4,1,0.,24.0,0.,24.0,0.,24.0,0.,24.0
1979-08-01 19:43:42.770 ,4,0,0.,24.0,0.,24.0,0.,24.0,0.,24.0
1979-08-01 19:44:06.770 ,3,1,0.,24.0,0.,24.0,0.,24.0,0.,24.0
1979-08-01 19:44:30.770 ,3,0,0.,24.0,0.,24.0,0.,24.0,0.,24.0
1979-08-01 19:44:54.770 ,2,1,0.,24.0,0.,24.0,0.,24.0,0.,24.0
1979-08-01 19:45:18.770 ,2,0,0.,24.0,0.,24.0,0.,24.0,0.,24.0
1979-08-01 19:45:42.770 ,1,1,0.,24.0,0.,24.0,0.,24.0,0.,24.0
1979-08-01 19:46:06.770 ,1,0,0.,24.0,0.,24.0,0.,24.0,0.,24.0
1979-08-01 19:46:30.770 ,0,1,1.,24.0,0.,24.0,0.,24.0,0.,24.0
1979-08-01 19:46:54.770 ,0,0,0.,24.0,0.,24.0,0.,24.0,0.,24.0
1979-08-01 19:48:06.770 ,0,0,0.,24.0,0.,24.0,0.,24.0,0.,24.0
1979-08-01 19:48:30.770 ,0,0,0.,24.0,0.,24.0,0.,24.0,0.,24.0
1979-08-01 19:48:54.770 ,2,1,0.,24.0,0.,24.0,0.,24.0,0.,24.0
1979-08-01 19:49:18.770 ,2,0,0.,24.0,0.,24.0,0.,24.0,0.,24.0
1979-08-01 19:49:42.770 ,3,1,0.,24.0,0.,24.0,0.,24.0,0.,24.0
1979-08-01 19:50:06.770 ,3,0,0.,24.0,0.,24.0,0.,24.0,0.,24.0
1979-08-01 19:50:30.770 ,4,1,0.,24.0,0.,24.0,0.,24.0,0.,24.0
1979-08-01 19:50:54.770 ,4,0,0.,24.0,0.,24.0,0.,24.0,0.,24.0
1979-08-01 19:51:18.770 ,5,1,0.,24.0,0.,24.0,0.,24.0,0.,24.0
1979-08-01 19:51:42.770 ,5,0,0.,24.0,0.,24.0,0.,24.0,0.,24.0
1979-08-01 19:52:54.770 ,0,0,0.,24.0,0.,24.0,0.,24.0,0.,24.0
1979-08-01 19:53:18.770 ,0,0,0.,24.0,0.,24.0,0.,24.0,0.,24.0
1979-08-01 19:53:42.770 ,7,1,0.,24.0,0.,24.0,0.,24.0,0.,24.0
1979-08-01 19:54:06.770 ,7,0,0.,24.0,0.,24.0,0.,24.0,0.,24.0
1979-08-01 19:54:30.770 ,6,1,0.,24.0,0.,24.0,0.,24.0,0.,24.0
1979-08-01 19:54:54.770 ,6,0,0.,24.0,0.,24.0,0.,24.0,0.,24.0
1979-08-01 19:55:18.770 ,5,1,0.,24.0,0.,24.0,0.,24.0,0.,24.0
1979-08-01 19:55:42.770 ,5,0,0.,24.0,0.,24.0,0.,24.0,0.,24.0
1979-08-01 19:56:06.770 ,4,1,0.,24.0,0.,24.0,0.,24.0,0.,24.0
1979-08-01 19:56:30.770 ,4,0,0.,24.0,0.,24.0,0.,24.0,0.,24.0
1979-08-01 19:56:54.770 ,3,1,0.,24.0,0.,24.0,0.,24.0,0.,24.0
1979-08-01 19:57:18.770 ,3,0,,0,,0,,0,,0
1979-08-01 19:57:42.760 ,2,1,0.,24.0,0.,24.0,0.,24.0,0.,24.0
1979-08-01 19:58:06.760 ,2,0,0.,24.0,0.,24.0,0.,24.0,0.,24.0
1979-08-01 19:58:30.760 ,1,1,0.,24.0,0.,24.0,0.,24.0,0.,24.0
1979-08-01 19:58:54.760 ,1,0,0.,24.0,0.,24.0,0.,24.0,0.,24.0
1979-08-01 19:59:18.760 ,0,1,0.,24.0,0.,24.0,0.,24.0,0.,24.0
1979-08-01 19:59:42.760 ,0,0,0.,24.0,0.,24.0,0.,24.0,0.,24.0
1979-08-01 20:00:06.760 ,0,1,0.,24.0,0.,24.0,0.,24.0,0.,24.0
1979-08-01 20:00:30.770 ,0,0,0.,24.0,0.,24.0,0.,24.0,0.,24.0
1979-08-01 20:00:54.770 ,1,1,0.,24.0,0.,24.0,0.,24.0,0.,24.0
1979-08-01 20:01:18.770 ,1,0,0.,24.0,0.,24.0,0.,24.0,0.,24.0
1979-08-01 20:01:42.760 ,2,1,0.,24.0,0.,24.0,0.,24.0,0.,24.0
1979-08-01 20:02:06.760 ,2,0,0.,24.0,0.,24.0,0.,24.0,0.,24.0
1979-08-01 20:02:30.770 ,3,1,0.,24.0,0.,24.0,0.,24.0,0.,24.0
1979-08-01 20:02:54.770 ,3,0,0.,24.0,0.,24.0,0.,24.0,0.,24.0
1979-08-01 20:03:18.770 ,4,1,0.,24.0,0.,24.0,0.,24.0,0.,24.0
1979-08-01 20:03:42.770 ,4,0,0.,24.0,0.,24.0,0.,24.0,0.,24.0
1979-08-01 20:04:06.760 ,5,1,0.,24.0,0.,24.0,0.,24.0,0.,24.0
1979-08-01 20:04:30.760 ,5,0,0.,24.0,0.,24.0,0.,24.0,0.,24.0
1979-08-01 20:05:42.760 ,0,0,0.,24.0,0.,24.0,0.,24.0,0.,24.0
1979-08-01 20:06:06.760 ,0,0,0.,24.0,0.,24.0,0.,24.0,0.,24.0
1979-08-01 20:06:30.760 ,7,1,1.,24.0,0.,24.0,0.,24.0,0.,24.0
1979-08-01 20:06:54.760 ,7,0,0.,24.0,0.,24.0,0.,24.0,0.,24.0
1979-08-01 20:08:06.760 ,0,0,0.,24.0,0.,24.0,0.,24.0,0.,24.0
1979-08-01 20:08:30.760 ,0,0,0.,24.0,0.,24.0,0.,24.0,0.,24.0
1979-08-01 20:08:54.770 ,4,1,0.,24.0,0.,24.0,0.,24.0,0.,24.0
1979-08-01 20:09:18.770 ,4,0,0.,24.0,0.,24.0,0.,24.0,0.,24.0
1979-08-01 20:09:42.770 ,3,1,0.,24.0,0.,24.0,0.,24.0,0.,24.0
1979-08-01 20:10:06.770 ,3,0,0.,24.0,0.,24.0,1.,24.0,1.,24.0
1979-08-01 20:10:30.770 ,2,1,0.,24.0,0.,24.0,0.,24.0,0.,24.0
1979-08-01 20:10:54.770 ,2,0,0.,24.0,0.,24.0,0.,24.0,0.,24.0
1979-08-01 20:11:18.770 ,1,1,0.,24.0,0.,24.0,0.,24.0,0.,24.0
1979-08-01 20:11:42.770 ,1,0,0.,24.0,0.,24.0,0.,24.0,0.,24.0
1979-08-01 20:12:06.770 ,0,1,0.,24.0,0.,24.0,0.,24.0,0.,24.0
1979-08-01 20:12:30.770 ,0,0,0.,24.0,0.,24.0,0.,24.0,0.,24.0
1979-08-01 20:12:54.770 ,0,1,0.,24.0,0.,24.0,0.,24.0,0.,24.0
1979-08-01 20:13:18.770 ,0,0,0.,24.0,0.,24.0,0.,24.0,0.,24.0
1979-08-01 20:13:42.770 ,1,1,0.,24.0,0.,24.0,0.,24.0,0.,24.0
1979-08-01 20:14:06.770 ,1,0,0.,24.0,0.,24.0,0.,24.0,0.,24.0
1979-08-01 20:14:30.770 ,0,0,0.,24.0,0.,24.0,0.,24.0,0.,24.0
1979-08-01 20:14:54.770 ,0,0,1.,24.0,0.,24.0,0.,24.0,0.,24.0
1979-08-01 20:15:18.770 ,1,1,0.,24.0,0.,24.0,0.,24.0,0.,24.0
1979-08-01 20:15:42.770 ,1,0,0.,24.0,0.,24.0,0.,24.0,0.,24.0
1979-08-01 20:16:06.770 ,4,1,0.,24.0,0.,24.0,0.,24.0,0.,24.0
1979-08-01 20:16:30.770 ,4,0,0.,24.0,0.,24.0,0.,24.0,0.,24.0
1979-08-01 20:16:54.760 ,5,1,0.,24.0,0.,24.0,0.,24.0,0.,24.0
1979-08-01 20:17:18.760 ,5,0,0.,24.0,0.,24.0,0.,24.0,0.,24.0
1979-08-01 20:17:42.760 ,6,1,0.,24.0,0.,24.0,0.,24.0,0.,24.0
1979-08-01 20:18:06.760 ,6,0,0.,24.0,0.,24.0,0.,24.0,0.,24.0
1979-08-01 20:18:30.760 ,7,0,0.,24.0,0.,24.0,0.,24.0,0.,24.0
1979-08-01 20:18:54.760 ,7,0,0.,24.0,0.,24.0,0.,24.0,0.,24.0
1979-08-01 20:19:18.760 ,5,1,0.,24.0,0.,24.0,0.,24.0,0.,24.0
1979-08-01 20:19:42.760 ,1,1,0.,24.0,0.,24.0,0.,24.0,0.,24.0
1979-08-01 20:20:06.760 ,2,1,0.,24.0,0.,24.0,0.,24.0,0.,24.0
1979-08-01 20:20:30.760 ,6,1,0.,24.0,0.,24.0,0.,24.0,0.,24.0
1979-08-01 20:20:54.760 ,5,1,0.,24.0,0.,24.0,0.,24.0,0.,24.0
1979-08-01 20:21:18.760 ,1,1,0.,24.0,0.,24.0,0.,24.0,0.,24.0
1979-08-01 20:21:42.760 ,2,1,0.,24.0,0.,24.0,0.,24.0,0.,24.0
1979-08-01 20:22:06.760 ,6,1,0.,24.0,0.,24.0,0.,24.0,0.,24.0
1979-08-01 20:22:30.760 ,5,1,0.,24.0,0.,24.0,0.,24.0,0.,24.0
1979-08-01 20:22:54.760 ,3,0,0.,24.0,1.,24.0,1.,24.0,0.,24.0
1979-08-01 20:23:18.760 ,0,0,0.,24.0,0.,24.0,0.,24.0,0.,24.0
1979-08-01 20:23:42.760 ,6,1,0.,24.0,0.,24.0,0.,24.0,0.,24.0
1979-08-01 20:24:06.760 ,5,1,0.,24.0,0.,24.0,0.,24.0,0.,24.0
1979-08-01 20:24:30.760 ,1,1,0.,24.0,0.,24.0,0.,24.0,0.,24.0
1979-08-01 20:24:54.760 ,2,1,0.,24.0,0.,24.0,0.,24.0,0.,24.0
1979-08-01 20:25:18.760 ,6,1,0.,24.0,0.,24.0,0.,24.0,0.,24.0
1979-08-01 20:25:42.760 ,5,1,0.,24.0,0.,24.0,0.,24.0,0.,24.0
1979-08-01 20:26:06.760 ,1,1,0.,24.0,0.,24.0,0.,24.0,0.,24.0
1979-08-01 20:26:30.760 ,2,1,1.,24.0,0.,24.0,0.,24.0,0.,24.0
1979-08-01 20:26:54.760 ,6,1,0.,24.0,0.,24.0,0.,24.0,0.,24.0
1979-08-01 20:27:18.760 ,0,0,0.,24.0,0.,24.0,0.,24.0,0.,24.0
1979-08-01 20:27:42.760 ,0,0,0.,24.0,0.,24.0,0.,24.0,1.,24.0
1979-08-01 20:28:06.760 ,0,0,0.,24.0,0.,24.0,0.,24.0,0.,24.0
1979-08-01 20:28:30.760 ,6,1,0.,24.0,0.,24.0,0.,24.0,0.,24.0
1979-08-01 20:28:54.760 ,5,1,0.,24.0,0.,24.0,0.,24.0,0.,24.0
1979-08-01 20:29:18.760 ,1,1,0.,24.0,0.,24.0,0.,24.0,0.,24.0
1979-08-01 20:29:42.760 ,0,0,0.,24.0,0.,24.0,0.,24.0,0.,24.0
1979-08-01 20:30:06.760 ,0,0,0.,24.0,0.,24.0,0.,24.0,0.,24.0
1979-08-01 20:30:30.760 ,5,1,0.,24.0,0.,24.0,0.,24.0,0.,24.0
1979-08-01 20:30:54.760 ,5,0,0.,24.0,0.,24.0,0.,24.0,0.,24.0
1979-08-01 20:31:18.760 ,0,0,0.,24.0,0.,24.0,0.,24.0,0.,24.0
1979-08-01 20:31:42.760 ,0,0,0.,24.0,0.,24.0,1.,24.0,0.,24.0
1979-08-01 20:32:06.760 ,5,1,0.,24.0,0.,24.0,0.,24.0,0.,24.0
1979-08-01 20:32:30.760 ,5,0,1.,24.0,0.,24.0,0.,24.0,0.,24.0
1979-08-01 20:32:54.760 ,2,1,0.,24.0,0.,24.0,0.,24.0,0.,24.0
1979-08-01 20:33:18.760 ,2,0,0.,24.0,0.,24.0,0.,24.0,0.,24.0
1979-08-01 20:33:42.760 ,1,1,0.,24.0,0.,24.0,0.,24.0,0.,24.0
1979-08-01 20:34:06.760 ,1,0,0.,24.0,0.,24.0,0.,24.0,0.,24.0
1979-08-01 20:34:30.760 ,0,1,0.,24.0,0.,24.0,0.,24.0,0.,24.0
1979-08-01 20:34:54.760 ,0,0,1.,24.0,0.,24.0,0.,24.0,0.,24.0
1979-08-01 20:35:18.760 ,0,1,0.,24.0,0.,24.0,0.,24.0,0.,24.0
1979-08-01 20:35:42.760 ,0,0,0.,24.0,0.,24.0,0.,24.0,0.,24.0
1979-08-01 20:36:06.760 ,0,0,0.,24.0,0.,24.0,0.,24.0,0.,24.0
1979-08-01 20:36:30.760 ,0,0,0.,24.0,0.,24.0,0.,24.0,1.,24.0
1979-08-01 20:36:54.760 ,0,0,0.,24.0,0.,24.0,0.,24.0,0.,24.0
1979-08-01 20:37:18.760 ,0,0,0.,24.0,0.,24.0,0.,24.0,0.,24.0
1979-08-01 20:37:42.760 ,3,1,0.,24.0,0.,24.0,0.,24.0,0.,24.0
1979-08-01 20:38:06.760 ,3,0,0.,24.0,0.,24.0,0.,24.0,0.,24.0
1979-08-01 20:38:30.760 ,4,1,0.,24.0,0.,24.0,0.,24.0,0.,24.0
1979-08-01 20:38:54.760 ,4,0,0.,24.0,0.,24.0,0.,24.0,0.,24.0
1979-08-01 20:39:18.760 ,5,1,0.,24.0,0.,24.0,0.,24.0,0.,24.0
1979-08-01 20:39:42.760 ,5,0,0.,24.0,0.,24.0,0.,24.0,0.,24.0
1979-08-01 20:40:06.760 ,6,1,0.,24.0,0.,24.0,0.,24.0,0.,24.0
1979-08-01 20:40:30.760 ,6,0,0.,24.0,0.,24.0,0.,24.0,0.,24.0
1979-08-01 20:40:54.760 ,7,1,0.,24.0,0.,24.0,0.,24.0,0.,24.0
1979-08-01 20:41:18.760 ,7,0,0.,24.0,0.,24.0,0.,24.0,0.,24.0
1979-08-01 20:41:42.760 ,7,1,0.,24.0,0.,24.0,0.,24.0,0.,24.0
1979-08-01 20:42:06.760 ,7,0,0.,24.0,0.,24.0,0.,24.0,0.,24.0
1979-08-01 20:42:30.760 ,6,1,0.,24.0,0.,24.0,0.,24.0,0.,24.0
1979-08-01 20:42:54.760 ,6,0,0.,24.0,0.,24.0,0.,24.0,0.,24.0
1979-08-01 20:43:18.760 ,5,1,0.,24.0,0.,24.0,0.,24.0,0.,24.0
1979-08-01 20:43:42.760 ,5,0,0.,24.0,0.,24.0,1.,24.0,0.,24.0
1979-08-01 20:44:06.760 ,4,1,0.,24.0,0.,24.0,0.,24.0,0.,24.0
1979-08-01 20:44:30.760 ,4,0,0.,24.0,0.,24.0,0.,24.0,0.,24.0
1979-08-01 20:44:54.760 ,3,1,0.,24.0,0.,24.0,0.,24.0,0.,24.0
1979-08-01 20:45:18.760 ,3,0,0.,24.0,0.,24.0,0.,24.0,0.,24.0
1979-08-01 20:45:42.760 ,2,1,0.,24.0,0.,24.0,0.,24.0,0.,24.0
1979-08-01 20:46:06.760 ,2,0,0.,24.0,0.,24.0,0.,24.0,0.,24.0
1979-08-01 20:46:30.760 ,1,1,0.,24.0,0.,24.0,0.,24.0,0.,24.0
1979-08-01 20:46:54.760 ,1,0,0.,24.0,0.,24.0,0.,24.0,0.,24.0
1979-08-01 20:48:06.760 ,0,0,0.,24.0,0.,24.0,0.,24.0,0.,24.0